Penang, Malaysia

6:16 PM +08 on May 28, 2017 (GMT +0800)
Penang International

Weather History for WMKP - January, 2014

Change the Weather History Date:

Friday, January 17, 2014

  Actual Average Record
Temperature  
Mean Temperature 82 °F -  
Max Temperature 89 °F 90 °F - ()
Min Temperature 75 °F 74 °F - ()
Cooling Degree Days 17    
Growing Degree Days 32 (Base 50)    
Moisture  
Dew Point 67 °F    
Average Humidity 61    
Maximum Humidity 74    
Minimum Humidity 43    
Precipitation  
Precipitation 0.00 in 0.09 in - ()
Sea Level Pressure  
Sea Level Pressure 29.88 in    
Wind  
Wind Speed 9 mph ()    
Max Wind Speed 15 mph    
Max Gust Speed 26 mph    
Visibility 5.6 miles    
Events      
T = Trace of Precipitation, MM = Missing Value Source: Averaged Metar Reports

Daily Weather History Graph

Daily Weather History Graph

Search for Another Location

Airport or City:

Trip Planner

Search our weather history database for the weather conditions in past years. The results will help you decide how hot, cold, wet, or windy it might be!

Date:

Astronomy

Jan. 17, 2014 Rise Set
Actual Time 7:33 AM +08 7:24 PM +08
Civil Twilight 7:11 AM +08 7:46 PM +08
Nautical Twilight 6:45 AM +08 8:12 PM +08
Astronomical Twilight 6:19 AM +08 8:38 PM +08
Moon 8:17 PM +08 (1/17) 8:04 AM +08 (1/17)
Length of Visible Light 12h 35m
Length of Day
11h 51m
Full, 99% of the Moon is Illuminated
Jan 17
Full
Jan 24
Last Quarter
Jan 31
New
Feb 7
First Quarter
Feb 15
Full

Hourly Weather History & Observations

Time (+08) Temp. Heat Index Dew Point Humidity Pressure Visibility Wind Dir Wind Speed Gust Speed Precip Events Conditions
12:00 AM 78.8 °F - 68.0 °F 69% 29.92 in 5.6 mi North 9.2 mph - N/A   Mostly Cloudy
12:30 AM 78.8 °F - 68.0 °F 69% 29.92 in 5.6 mi NNE 9.2 mph - N/A   Mostly Cloudy
1:00 AM 78.8 °F - 68.0 °F 69% 29.92 in 5.6 mi NNE 9.2 mph - N/A   Mostly Cloudy
1:30 AM 78.8 °F - 68.0 °F 69% 29.92 in 5.6 mi NNE 9.2 mph - N/A   Mostly Cloudy
2:00 AM 78 °F - 67 °F 61% 29.92 in 6 mi NNE 10.4 mph - -   Haze
2:00 AM 78.8 °F - 68.0 °F 69% 29.92 in 5.6 mi NNE 10.4 mph - N/A   Mostly Cloudy
2:30 AM 77.0 °F - 68.0 °F 74% 29.92 in 5.6 mi NNE 8.1 mph - N/A   Mostly Cloudy
3:00 AM 77.0 °F - 68.0 °F 74% 29.89 in 5.6 mi NNE 8.1 mph - N/A   Mostly Cloudy
3:30 AM 77.0 °F - 66.2 °F 69% 29.89 in 5.6 mi NNE 8.1 mph - N/A   Mostly Cloudy
4:00 AM 77.0 °F - 66.2 °F 69% 29.86 in 5.6 mi NNE 9.2 mph - N/A   Mostly Cloudy
4:30 AM 77.0 °F - 66.2 °F 69% 29.86 in 5.6 mi North 5.8 mph - N/A   Mostly Cloudy
5:00 AM 77 °F - 67 °F 64% 29.87 in 6 mi North 4.6 mph - -   Haze
5:00 AM 77.0 °F - 66.2 °F 69% 29.86 in 5.6 mi North 4.6 mph - N/A   Mostly Cloudy
5:30 AM 77.0 °F - 66.2 °F 69% 29.86 in 5.6 mi North 4.6 mph - N/A   Mostly Cloudy
6:00 AM 77.0 °F - 68.0 °F 74% 29.86 in 5.6 mi North 4.6 mph - N/A   Mostly Cloudy
6:30 AM 75.2 °F - 66.2 °F 73% 29.86 in 5.6 mi NNE 8.1 mph - N/A   Mostly Cloudy
7:00 AM 77.0 °F - 66.2 °F 69% 29.89 in 5.6 mi North 8.1 mph - N/A   Mostly Cloudy
7:30 AM 77.0 °F - 66.2 °F 69% 29.89 in 5.0 mi NNE 10.4 mph - N/A   Mostly Cloudy
8:00 AM 77 °F - 67 °F 63% 29.90 in 6 mi NNE 11.5 mph - -   Haze
8:00 AM 77.0 °F - 66.2 °F 69% 29.89 in 5.6 mi NNE 11.5 mph - N/A   Mostly Cloudy
8:30 AM 77.0 °F - 66.2 °F 69% 29.92 in 5.6 mi NNE 11.5 mph - N/A   Mostly Cloudy
9:00 AM 78.8 °F - 66.2 °F 65% 29.92 in 5.6 mi NNE 10.4 mph - N/A   Mostly Cloudy
9:30 AM 78.8 °F - 68.0 °F 69% 29.92 in 5.6 mi NNE 11.5 mph - N/A   Mostly Cloudy
10:00 AM 80.6 °F 82.7 °F 66.2 °F 61% 29.92 in 5.6 mi NNE 12.7 mph - N/A   Mostly Cloudy
10:30 AM 82.4 °F 84.6 °F 66.2 °F 58% 29.92 in 5.6 mi NNE 11.5 mph - N/A   Mostly Cloudy
11:00 AM 83 °F - 66 °F 48% 29.94 in 6 mi NE 13.8 mph - -   Haze
11:00 AM 82.4 °F 84.6 °F 66.2 °F 58% 29.92 in 5.6 mi NE 13.8 mph 26.5 mph N/A   Mostly Cloudy
11:30 AM 84.2 °F 86.6 °F 66.2 °F 55% 29.92 in 5.6 mi NE 13.8 mph - N/A   Mostly Cloudy
12:00 PM 84.2 °F 86.6 °F 66.2 °F 55% 29.92 in 5.6 mi NE 15.0 mph - N/A   Mostly Cloudy
12:30 PM 84.2 °F 86.6 °F 66.2 °F 55% 29.92 in 5.6 mi NNE 13.8 mph - N/A   Mostly Cloudy
1:00 PM 86.0 °F 88.2 °F 66.2 °F 51% 29.89 in 5.6 mi NNE 12.7 mph - N/A   Mostly Cloudy
1:30 PM 87.8 °F 91.4 °F 68.0 °F 52% 29.89 in 5.6 mi NE 11.5 mph - N/A   Mostly Cloudy
2:00 PM 88 °F - 68 °F 43% 29.88 in 6 mi NNE 9.2 mph - -   Haze
2:00 PM 87.8 °F 91.4 °F 68.0 °F 52% 29.86 in 5.6 mi NNE 9.2 mph - N/A   Mostly Cloudy
2:30 PM 87.8 °F 91.4 °F 68.0 °F 52% 29.86 in 5.6 mi NNE 9.2 mph - N/A   Mostly Cloudy
3:00 PM 87.8 °F 91.4 °F 68.0 °F 52% 29.83 in 5.6 mi NE 11.5 mph - N/A   Mostly Cloudy
3:30 PM 89.6 °F 93.4 °F 68.0 °F 49% 29.83 in 5.6 mi NE 9.2 mph - N/A   Mostly Cloudy
4:00 PM 89.6 °F 92.2 °F 66.2 °F 46% 29.80 in 5.6 mi ENE 11.5 mph - N/A   Mostly Cloudy
4:30 PM 87.8 °F 92.6 °F 69.8 °F 55% 29.80 in 5.6 mi NE 5.8 mph - N/A   Mostly Cloudy
5:00 PM 88 °F - 70 °F 46% 29.81 in 6 mi NNE 5.8 mph - -   Haze
5:00 PM 87.8 °F 92.6 °F 69.8 °F 55% 29.80 in 5.6 mi NNE 5.8 mph - N/A   Mostly Cloudy
5:30 PM 87.8 °F 91.4 °F 68.0 °F 52% 29.80 in 5.6 mi North 4.6 mph - N/A   Mostly Cloudy
6:00 PM 86.0 °F 89.4 °F 68.0 °F 55% 29.80 in 5.6 mi North 6.9 mph - N/A   Mostly Cloudy
6:30 PM 86.0 °F 90.4 °F 69.8 °F 58% 29.80 in 5.6 mi NNE 5.8 mph - N/A   Mostly Cloudy
7:00 PM 86.0 °F 89.4 °F 68.0 °F 55% 29.83 in 5.6 mi North 8.1 mph - N/A   Mostly Cloudy
7:30 PM 84.2 °F 86.6 °F 66.2 °F 55% 29.83 in 5.6 mi North 9.2 mph - N/A   Mostly Cloudy
8:00 PM 83 °F - 67 °F 50% 29.86 in 6 mi NNE 8.1 mph - -   Haze
8:00 PM 84.2 °F 87.3 °F 68.0 °F 58% 29.86 in 5.6 mi NNE 8.1 mph - N/A   Mostly Cloudy
8:30 PM 82.4 °F 85.4 °F 68.0 °F 62% 29.86 in 5.6 mi NNE 8.1 mph - N/A   Mostly Cloudy
9:00 PM 82.4 °F 85.4 °F 68.0 °F 62% 29.89 in 5.6 mi NNE 9.2 mph - N/A   Mostly Cloudy
9:30 PM 82.4 °F 85.4 °F 68.0 °F 62% 29.89 in 5.6 mi NNE 10.4 mph - N/A   Mostly Cloudy
10:00 PM 82.4 °F 85.4 °F 68.0 °F 62% 29.89 in 5.6 mi North 9.2 mph - N/A   Mostly Cloudy
10:30 PM 80.6 °F 83.2 °F 68.0 °F 65% 29.92 in 5.6 mi NNE 10.4 mph - N/A   Mostly Cloudy
11:00 PM 81 °F - 67 °F 53% 29.93 in 6 mi NNE 10.4 mph - -   Haze
11:00 PM 80.6 °F 82.7 °F 66.2 °F 61% 29.92 in 5.6 mi NNE 10.4 mph - N/A   Mostly Cloudy
11:30 PM 80.6 °F 82.7 °F 66.2 °F 61% 29.92 in 5.6 mi NNE 11.5 mph - N/A   Mostly Cloudy